To NAV CANADA Home Page Login to a new session Search on AWWS site Feedback and Comments Disclaimer Vers la page française équivalente Tips FAQ What's new on the site To the Forecasts and Observations / NOTAM section To "File a Flight Plan" website Publications and other links Update of the User's profile FIC Telephone Numbers My Weather Data Folder Route Weather Data Regional Weather Data Local Weather Data To the Forecasts and Observations / NOTAM section
Request Generated 08/30/2016 at 04:49:36 UTC . Weather information available at that time is displayed.

METAR/TAF

KINGSTON/ON    

LWIS CYGK 300400Z AUTO 36002KT 17/16 A3019=
METAR CYGK 300300Z 13004KT 090V160 15SM FEW022 FEW250 19/17 A3019 RMK
CF1CI1 LAST STFD OBS/NEXT 301000 UTC SLP225 DENSITY ALT 500FT=
METAR CYGK 300200Z 04002KT 15SM FEW022 FEW250 20/18 A3019 RMK CF1CI1
SLP226 DENSITY ALT 600FT=

*** REMARK        : Forecast period has ended; this was the last TAF issued
*** REMARQUE : La période de prévision est échue; ceci était le dernier TAF qui a été émis
TAF CYGK 291938Z 2920/3003 35008KT P6SM FEW050 SCT250
FM300000 34005KT P6SM SKC
RMK NXT FCST WILL BE ISSUED AT 301145Z=
Your time UTC time
Weather data provided by Environment Canada and NAV CANADA